Tracking 17155 objects as of 29-July-2015
HD Live streaming from Space Station

MERIDIAN 3

Track MERIDIAN 3 now!
MERIDIAN 3 is classified as:


NORAD ID: 37212
Int'l Code: 2010-058A
Perigee: 2,244.3 km
Apogee: 38,126.9 km
Inclination: 62.9 °
Period: 717.8 minutes
Semi major axis: 26556 km
RCS: 24.3984 m2 (large)
Launch date: November 2, 2010
Source: Commonwealth of Independent States (former USSR) (CIS)

MERIDIAN 3 is a Russian military communications satellite.
Your satellite tracking list
Your tracking list is empty





NASA's NSSDC Master Catalog

Two Line Element Set (TLE):
1 37212U 10058A   15208.34549045  .00000176  00000-0  10000-3 0  9997
2 37212 062.8849 152.0462 6755883 274.8404 343.5268 02.00606529 34654

Source of the keplerian elements: AFSPC

N2YO: 260